Weather History for Greenwood, MS

Change the Weather History Date:

Monday, August 12, 2013

  Actual Average Record
Temperature  
Mean Temperature 83 °F 81 °F  
Max Temperature 93 °F 93 °F 102 °F (1954)
Min Temperature 72 °F 70 °F 57 °F (2004)
Degree Days  
Heating Degree Days 0 0  
Month to date heating degree days 0 0  
Since 1 June heating degree days 0 0  
Since 1 July heating degree days 0 0  
Cooling Degree Days 18 16  
Month to date cooling degree days 232 192  
Year to date cooling degree days 1366 1440  
Since 1 June cooling degree days 1090 1110  
Growing Degree Days 32 (Base 50)    
Moisture  
Dew Point 73 °F    
Average Humidity 75    
Maximum Humidity 100    
Minimum Humidity 49    
Precipitation  
Precipitation 0.31 in 0.08 in 1.58 in (2008)
Month to date precipitation 0.51 1.06  
Year to date precipitation 36.23 32.30  
Sea Level Pressure  
Sea Level Pressure 30.04 in    
Wind  
Wind Speed 6 mph (SSW)    
Max Wind Speed 20 mph    
Max Gust Speed 28 mph    
Visibility 9 miles    
Events Rain    
T = Trace of Precipitation, MM = Missing Value Source: NWS Daily Summary

Daily Weather History Graph

Daily Weather History Graph

Search for Another Location

Airport:

Trip Planner

Search our weather history database for the weather conditions in past years. The results will help you decide how hot, cold, wet, or windy it might be!

Date:

Astronomy

Aug. 12, 2013 Rise Set
Actual Time 6:20 AM CDT 7:49 PM CDT
Civil Twilight 5:54 AM CDT 8:15 PM CDT
Nautical Twilight 5:22 AM CDT 8:47 PM CDT
Astronomical Twilight 4:49 AM CDT 9:20 PM CDT
Moon 11:51 AM CDT (8/12) 11:03 PM CDT (8/12)
Length of Visible Light 14h 21m
Length of Day
13h 28m
Waxing Crescent, 31% of the Moon is Illuminated
Aug 12
Waxing Crescent
Aug 14
First Quarter
Aug 20
Full
Aug 28
Last Quarter
Sep 5
New

Hourly Weather History & Observations

Time (CDT) Temp. Heat Index Dew Point Humidity Pressure Visibility Wind Dir Wind Speed Gust Speed Precip Events Conditions
12:53 AM 77.0 °F - 73.0 °F 88% 30.07 in 10.0 mi South 6.9 mph - N/A   Clear
1:53 AM 75.0 °F - 73.0 °F 94% 30.07 in 10.0 mi Calm Calm - N/A   Clear
2:53 AM 73.9 °F - 72.0 °F 93% 30.07 in 10.0 mi South 3.5 mph - N/A   Clear
3:53 AM 73.0 °F - 72.0 °F 96% 30.07 in 10.0 mi Calm Calm - N/A   Clear
4:53 AM 73.0 °F - 72.0 °F 96% 30.06 in 9.0 mi Calm Calm - N/A   Clear
5:53 AM 72.0 °F - 71.1 °F 97% 30.06 in 10.0 mi South 3.5 mph - N/A   Clear
6:53 AM 73.9 °F - 72.0 °F 93% 30.07 in 10.0 mi SSW 3.5 mph - N/A   Clear
7:53 AM 78.1 °F - 73.9 °F 87% 30.08 in 10.0 mi SSW 6.9 mph - N/A   Clear
8:53 AM 81.0 °F 86.7 °F 75.0 °F 82% 30.10 in 10.0 mi SW 8.1 mph - N/A   Partly Cloudy
9:53 AM 84.0 °F 92.6 °F 75.9 °F 76% 30.09 in 10.0 mi SW 10.4 mph - N/A   Scattered Clouds
10:25 AM 84.2 °F 92.3 °F 75.2 °F 74% 30.10 in 10.0 mi Variable 5.8 mph - N/A   Mostly Cloudy
10:32 AM 86.0 °F 95.1 °F 75.2 °F 70% 30.10 in 10.0 mi WSW 8.1 mph - N/A   Scattered Clouds
10:53 AM 88.0 °F 97.5 °F 75.0 °F 65% 30.09 in 10.0 mi SW 9.2 mph - N/A   Partly Cloudy
11:53 AM 89.1 °F 98.0 °F 73.9 °F 61% 30.08 in 10.0 mi SW 6.9 mph - N/A   Partly Cloudy
12:53 PM 90.0 °F 99.0 °F 73.9 °F 59% 30.05 in 10.0 mi SSW 10.4 mph - N/A   Partly Cloudy
1:53 PM 91.0 °F 99.3 °F 73.0 °F 55% 30.02 in 10.0 mi Variable 5.8 mph - N/A   Scattered Clouds
2:53 PM 93.0 °F 101.9 °F 73.0 °F 52% 29.99 in 10.0 mi SSW 4.6 mph - N/A   Partly Cloudy
3:53 PM 93.0 °F 100.7 °F 72.0 °F 50% 29.97 in 10.0 mi SSW 10.4 mph - N/A   Partly Cloudy
4:53 PM 91.9 °F 100.7 °F 73.0 °F 54% 29.96 in 10.0 mi SSW 8.1 mph - N/A   Partly Cloudy
5:53 PM 89.1 °F 97.0 °F 73.0 °F 59% 29.95 in 10.0 mi SW 4.6 mph - N/A   Scattered Clouds
6:53 PM 87.1 °F 95.4 °F 73.9 °F 65% 29.96 in 10.0 mi South 8.1 mph - N/A   Clear
7:53 PM 82.0 °F 87.9 °F 73.9 °F 76% 29.99 in 10.0 mi SW 4.6 mph - N/A   Mostly Cloudy
8:53 PM 80.1 °F 84.5 °F 73.9 °F 81% 29.99 in 10.0 mi Calm Calm - N/A   Mostly Cloudy
9:31 PM 77.0 °F - 69.8 °F 78% 30.04 in 10.0 mi North 9.2 mph 19.6 mph N/A   Mostly Cloudy
9:53 PM 73.9 °F - 72.0 °F 93% 30.04 in 6.0 mi NNE 13.8 mph - 0.00 in Rain Light Rain
10:21 PM 73.4 °F - 71.6 °F 94% 30.03 in 1.8 mi SSW 8.1 mph - 0.13 in Rain Heavy Rain
10:33 PM 73.4 °F - 71.6 °F 94% 30.03 in 2.0 mi South 6.9 mph - 0.25 in Rain Heavy Rain
10:45 PM 73.4 °F - 71.6 °F 94% 30.03 in 7.0 mi South 8.1 mph - 0.27 in Rain Light Rain
10:53 PM 73.9 °F - 73.0 °F 97% 30.03 in 9.0 mi South 8.1 mph - 0.27 in Rain Light Rain
11:53 PM 73.0 °F - 71.1 °F 93% 30.00 in 10.0 mi Calm Calm - 0.04 in   Clear